Tracking 30074 objects as of 13-Jan-2025
HD Live streaming from Space Station
objects crossing your sky now

STARLINK-2585

Track STARLINK-2585 now!
10-day predictions
STARLINK-2585 is classified as:


NORAD ID: 48382
Int'l Code: 2021-038AF
Perigee: 553.7 km
Apogee: 555.2 km
Inclination: 53.1 °
Period: 95.6 minutes
Semi major axis: 6925 km
RCS: Unknown
Launch date: May 4, 2021
Source: United States (US)
Launch site: AIR FORCE EASTERN TEST RANGE (AFETR)
Your satellite tracking list
Your tracking list is empty




NASA's NSSDC Master Catalog

Two Line Element Set (TLE):
1 48382U 21038AF  25012.48825924  .00015735  00000-0  10738-2 0  9993
2 48382  53.0553  82.4689 0001089  86.9697 273.1417 15.06366915203684
Source of the keplerian elements: AFSPC